DECAYED

STARLINK-3840, 52466 (Decayed)

Orbit data source: Space-Track

STARLINK-3840, 52466 was a payload satellite owned by SpaceX/Seattle (US) in LEO that was launched on Fri, 06 May 2022 UTC via an FALCON 9 launch vehicle from the Air Force Eastern Test Range (AFETR). Payload-class satellites include a variety of spacecraft equipped with specific instruments for various scientific and technological missions. These include communications satellites like Starlink; space stations such as the ISS; scientific satellites like the Hubble; Earth observation satellites from companies like Planet Labs, Umbra, and HawkEye 360; GPS; miniature CubeSats for education and research; and military/defense satellites.

Not visible in the next 10 days
Identifier
52466, 2022-049R
Orbit
Decayed
Country
Flag of USUS
Related business
Manufacturer
SpaceX/Seattle
Mission
Decayed Commercial Communications
Bus & Motor
STARLINK, Unknown motor
Mass
297 kg wet, ~220 kg dry
Launch date (UTC)
2022-05-06 (4 years ago)
Launch vehicle
FALCON 9
Launch site
Air Force Eastern Test Range (AFETR)
Object type
Payload
Rocket body
Debris
Shape & HBR
Box + 1 Pan, 10.1 m
Radar Cross Section
13.562 m², Large (>1 m²)

Expand to show TLE details & history
Last TLE update: 1 year ago

TLE from 1 year ago
0 STARLINK-3840
1 52466U 22049R   25136.69640064  .10069869  12055-4  30210-2 0  9996
2 52466  53.1601 247.6395 0008565 310.1679 196.7096 16.26174294168474
Epoch: 2025-05-16T16:42Z
TLE epoch observation values (Epoch: 2025-05-16T16:42:49.015Z)
Latitude
26.03093°
Longitude
-79.04728°
Altitude
209.367 km
Speed
7.781 km/s
True Right ascension
03h 05m 13s
True Declination
25° 53' 03"
Sunlit
Object was in daylight at epoch
Visualization orbit readout
Latitude
Unknown
Longitude
Unknown
Altitude
Unknown
Speed
Unknown
Apparent Right ascension
Unknown
Apparent Declination
Unknown
Sunlit
N/A
Visualization observer readout
Local Sidereal Time
02:15:57
Azimuth
Unknown
Elevation
Unknown
Doppler factor
Unknown
Orbital elements
Apogee altitude
208.745 km
Perigee altitude
197.471 km
Semi-major axis
6,581.245 km
Eccentricity
0.00086
Inclination
53.1601°
RAAN
247.6395°
Arg. of periapsis
310.1679°
True anomaly
196.68141°
Mean anomaly
196.7096°
Eccentric anomaly
196.6955°
Mean motion
4.06519 °/min
Orbital period
88.56 mins
BSTAR
0.003021
Loading maneuver chart data...
Computing Atmospheric mass density...
Loading historical data...
Loading historical data...
Loading historical data...
Loading historical data...
Loading historical data...
Loading historical data...
Loading historical data...

Documentation

Showing up to 5 results
|